• Join FlightAware (Why Join?)
  • Login
  • US Flag 
01:04AM EST


 

Airport Tracker/Info


-or-


 

Live Flight TrackerFlight Track Log ✈ N98XL ✈ 01-May-2013 ✈ KSMO - KPRB

Flight Track Log - Related Links

Times and Time Zones

All times are in EDT time to prevent confusion due to time zone crossing. See the N98XL flight status page for this flight to view local times or setup timezone preferences in your user account.

Time Position Orientation Groundspeed Altitude Reporting Facility
EDT Latitude Longitude Course Direction KTS MPH feet Rate Location/Type
10:43AM 34.0000 -118.4833 253° West 173 199 1,900  Level Southern California TRACON
10:44AM 33.9833 -118.5500 253° West 223 257 4,900 2,885 Climbing Southern California TRACON
10:44AM 34.0036 -118.6097 292° West 256 295 6,900 2,321 Climbing Los Angeles Center
10:45AM 34.0508 -118.6681 314° West 299 344 9,000 1,065 Climbing Los Angeles Center
10:47AM 34.1333 -118.6475 12° North 287 330 9,100 1,548 Climbing Los Angeles Center
10:48AM 34.2275 -118.6158 16° North 294 338 12,200 2,468 Climbing Los Angeles Center
10:49AM 34.3106 -118.6194 358° North 298 343 14,200 2,000 Climbing Los Angeles Center
10:50AM 34.3931 -118.6592 338° Northwest 317 365 16,300 2,098 Climbing Los Angeles Center
10:51AM 34.4764 -118.6986 339° North 323 372 18,500 2,129 Climbing Los Angeles Center
10:52AM 34.5617 -118.7397 338° Northwest 329 379 20,700 1,694 Climbing Los Angeles Center
10:53AM 34.6275 -118.8239 314° West 357 411 22,000 629 Climbing Los Angeles Center
10:54AM 34.6897 -118.9281 306° West 381 438 22,000  Level Los Angeles Center
10:55AM 34.7728 -119.0600 307° West 409 471 22,000  Level Los Angeles Center
10:56AM 34.8419 -119.1717 307° West 410 472 22,000  Level Los Angeles Center
10:57AM 34.9086 -119.2811 307° West 407 468 22,000  Level Los Angeles Center
10:58AM 34.9758 -119.3917 307° West 407 468 22,000  Level Los Angeles Center
10:59AM 35.0442 -119.4986 308° West 402 463 22,000 -919 Level Los Angeles Center
11:00AM 35.1103 -119.6069 307° West 400 460 20,100 -2,146 Descending Los Angeles Center
11:01AM 35.1869 -119.7364 306° West 395 455 17,600 -2,195 Descending Los Angeles Center
11:02AM 35.2486 -119.8364 307° West 369 425 15,600 -1,887 Descending Los Angeles Center
11:03AM 35.3092 -119.9356 307° West 368 423 13,700 -1,790 Descending Los Angeles Center
11:04AM 35.3672 -120.0319 306° West 357 411 11,900 -1,723 Descending Los Angeles Center
11:05AM 35.4017 -120.0881 307° West 356 410 10,800 -1,692 Descending Oakland Center